EDT,Max TemperatureF,Mean TemperatureF,Min TemperatureF,Max Dew PointF,MeanDew PointF,Min DewpointF,Max Humidity, Mean Humidity, Min Humidity, Max Sea Level PressureIn, Mean Sea Level PressureIn, Min Sea Level PressureIn, Max VisibilityMiles, Mean VisibilityMiles, Min VisibilityMiles, Max Wind SpeedMPH, Mean Wind SpeedMPH, Max Gust SpeedMPH,PrecipitationIn, CloudCover, Events, WindDirDegrees
2012-9-1,91,81,71,73,72,70,100,78,55,30.14,30.08,30.01,10,9,2,12,2,24,0.08,2,Rain-Thunderstorm,61
2012-9-2,91,81,70,74,71,69,100,76,52,30.04,29.96,29.87,10,6,0,17,3,25,0.33,2,Fog-Rain-Thunderstorm,149
2012-9-3,84,77,70,74,71,69,100,85,69,29.93,29.90,29.87,10,7,0,23,3,31,0.49,7,Fog-Rain,112
2012-9-4,86,78,69,73,71,69,100,83,65,29.92,29.89,29.83,10,5,0,9,3,13,T,6,Fog,191
2012-9-5,90,81,71,72,70,66,100,74,47,29.90,29.85,29.79,10,7,2,12,3,16,0.01,3,Rain,219
2012-9-6,82,75,68,70,69,66,97,81,65,29.97,29.92,29.85,10,7,4,16,4,41,T,5,,230
2012-9-7,90,77,63,70,66,62,100,71,41,29.99,29.92,29.74,10,4,0,9,3,16,0.00,1,Fog,198
2012-9-8,76,67,58,67,61,55,93,77,61,29.92,29.78,29.68,10,8,0,21,5,29,0.44,5,Fog-Rain,254
2012-9-9,77,66,54,58,54,49,100,72,43,30.04,29.96,29.90,10,9,0,12,3,18,0.00,5,Fog,227
2012-9-10,76,64,52,55,50,42,93,62,31,30.20,30.15,30.05,10,10,10,12,3,23,0.00,1,,42
2012-9-11,80,64,47,53,48,45,93,62,30,30.30,30.24,30.20,10,10,9,9,2,14,0.00,0,,125
2012-9-12,85,68,51,61,56,51,100,67,34,30.32,30.26,30.22,10,10,10,9,2,13,0.00,1,,180
2012-9-13,83,70,56,61,58,53,100,70,39,30.33,30.26,30.21,10,9,5,8,2,12,0.00,1,,142
2012-9-14,85,72,58,63,59,56,100,70,40,30.25,30.21,30.15,10,8,4,15,4,21,0.05,3,Rain,318
2012-9-15,77,65,53,55,48,43,89,60,31,30.31,30.23,30.16,10,10,10,14,3,17,0.00,0,,29
2012-9-16,80,67,54,54,48,39,93,59,25,30.16,30.10,30.03,10,10,10,10,2,17,0.00,0,,98
2012-9-17,76,66,55,66,61,50,100,80,60,30.05,29.93,29.80,10,5,1,10,3,15,0.94,7,Rain,156
2012-9-18,69,63,57,65,62,48,100,82,63,29.97,29.72,29.62,10,6,0,15,5,23,1.64,7,Fog-Rain,261
2012-9-19,68,57,45,46,41,34,93,61,29,30.19,30.12,30.00,10,10,10,9,3,13,0.00,0,,30
2012-9-20,77,60,42,57,49,41,100,69,38,30.11,30.05,29.97,10,10,10,14,4,20,0.00,0,,193
2012-9-21,78,69,59,57,56,55,84,67,50,30.03,29.95,29.81,10,10,10,13,7,18,0.00,5,,200
2012-9-22,76,63,50,58,48,28,68,50,31,30.13,29.91,29.81,10,10,10,21,9,30,0.00,3,,247
2012-9-23,66,52,38,42,38,29,92,65,37,30.24,30.20,30.14,10,10,7,9,2,14,0.00,2,,287
2012-9-24,68,53,37,45,39,32,100,64,28,30.30,30.22,30.12,10,8,1,10,2,15,0.00,0,,182
2012-9-25,60,51,42,57,50,40,100,86,72,30.16,30.09,30.03,10,9,5,16,4,24,0.20,6,Rain-Thunderstorm,168
2012-9-26,80,70,59,66,61,56,100,77,54,30.14,30.10,30.04,10,8,1,20,5,31,0.45,5,Rain-Hail-Thunderstorm,213
2012-9-27,75,68,61,65,63,61,100,84,68,30.17,30.13,30.08,10,4,0,12,3,17,T,4,Fog-Rain,117
2012-9-28,64,62,59,63,61,59,100,97,93,30.12,30.08,30.04,4,1,0,8,4,12,2.01,8,Fog-Rain-Thunderstorm,41
2012-9-29,70,60,50,57,52,46,100,72,44,30.08,30.02,29.95,10,7,0,12,2,26,0.00,4,Fog,28
2012-9-30,75,61,46,56,49,45,100,71,41,29.96,29.89,29.81,10,6,1,13,4,17,0.00,2,,218